Location: Unspecified
(44.0704°N, 88.6889°W)
Time: 00:24:07
(UTC+02:00)

ISS - Visible Passes

Search period start: 26 May 2018 00:00
Search period end: 05 June 2018 00:00
Orbit: 402 x 407 km, 51.6° (Epoch: 26 May)

Date Brightness Start Highest point End Pass type
(mag) Time Alt. Az. Time Alt. Az. Time Alt. Az.
26 May -2.7 04:09:53 10° W 04:13:03 47° NNW 04:16:14 10° NE visible
26 May -1.2 05:47:28 10° WNW 05:50:05 21° N 05:52:42 10° NE visible
26 May -1.8 07:24:24 10° NW 07:27:16 28° NNE 07:27:41 27° NNE visible
27 May -1.4 04:54:55 10° WNW 04:57:40 24° N 05:00:25 10° NE visible
27 May -1.4 06:32:10 10° NW 06:34:52 23° N 06:36:54 14° ENE visible
27 May -1.4 08:08:32 10° NW 08:09:30 18° NW 08:09:30 18° NW visible
28 May -1.7 04:02:20 10° W 04:05:16 30° NNW 04:08:13 10° NE visible
28 May -1.3 05:39:51 10° NW 05:42:27 21° N 05:45:02 10° NE visible
28 May -2.3 07:16:23 10° NW 07:18:49 36° NNW 07:18:49 36° NNW visible
29 May -1.3 04:47:24 10° NW 04:49:59 21° N 04:52:35 10° NE visible
29 May -2.0 06:24:12 10° NW 06:27:09 30° NNE 06:28:11 25° NE visible
29 May -0.9 08:00:35 10° WNW 08:00:48 11° WNW 08:00:48 11° WNW visible
30 May -1.7 05:31:58 10° NW 05:34:45 24° NNE 05:37:30 10° ENE visible
30 May -2.2 07:08:18 10° WNW 07:10:11 31° NW 07:10:11 31° NW visible
31 May -1.4 04:39:39 10° NW 04:42:16 22° N 04:44:53 10° ENE visible
31 May -3.1 06:16:06 10° NW 06:19:17 48° NNE 06:19:36 46° NE visible
01 Jun -2.3 05:23:54 10° NW 05:26:55 33° NNE 05:29:02 16° ENE visible
01 Jun -1.7 07:00:20 10° WNW 07:01:40 21° WNW 07:01:40 21° WNW visible
02 Jun -1.9 04:31:39 10° NW 04:34:29 26° NNE 04:37:18 10° ENE visible
02 Jun -3.9 06:07:59 10° WNW 06:11:08 81° W 06:11:08 81° W visible
03 Jun -3.4 05:15:43 10° NW 05:18:57 57° NNE 05:20:37 25° E visible
03 Jun -1.2 06:52:39 10° W 06:53:15 13° W 06:53:15 13° W visible
04 Jun -2.6 04:23:28 10° NW 04:26:33 37° NNE 04:29:38 10° E visible
04 Jun -2.9 05:59:58 10° WNW 06:02:45 36° SW 06:02:45 36° SW visible
